BEESAT-5

Last updated on Mon Jun 17 2024 00:03:35 GMT+0000 (Coordinated Universal Time)

1 48083U 21022AM 24167.72086210 .03964643 24120-5 26621-2 0 9994 2 48083 97.3757 77.9881 0009518 178.1963 181.9360 16.16778611178155
UTC large
Height (km)
Speed (km/s)
/
Latitude / Longitude
Inclination (degrees)
Orbital Period (minutes)
Azimuth
Elevation
Range (km)
Doppler Factor

Next 0 passes for location: London (51.5072 / 0.1276)

Sorry there are no passes over London.